OPTUS D3

Last updated on Sat Oct 25 2025 00:02:49 GMT+0000 (Coordinated Universal Time)

1 35756U 09044B 25297.64987220 -.00000134 00000+0 00000+0 0 9993 2 35756 0.4494 271.2829 0000636 116.3423 35.8236 1.00267984 59205
UTC large
Height (km)
Speed (km/s)
/
Latitude / Longitude
Inclination (degrees)
Orbital Period (minutes)
Azimuth
Elevation
Range (km)
Doppler Factor

Next 0 passes for location: London (51.5072 / 0.1276)

Sorry there are no passes over London.